Flag for U.S.A. Weather past 2 weeks in Rancho Cucamonga, California, U.S.A.

Now
65 °F

Passing clouds.


Feels Like: 65 °F
Forecast: 65 / 92 °F
Wind: 3 mph from West

Location: Ontario International Airport

Current Time: Aug 3, 2015 at 6:23:11 AM

Latest Report: Aug 3, 2015 at 5:53 AM


Visibility: 10 mi

Pressure: 29.84 "Hg

Humidity: 87%

Dew point: 61 °F

Location of Rancho CucamongaLocation

Historic Weather in Rancho Cucamonga — Graph

°F

Rancho Cucamonga temperature yesterday

Maximum temperature yesterday: 93 °F (at 3:53 PM)
Minimum temperature yesterday: 66 °F (at 5:53 AM)
Average temperature yesterday: 77 °F

Past Weeks' High & Low Weather Summary

 TemperatureHumidityPressure
High96 °F (Jul 30, 1:53 PM)93% (Jul 20, 3:53 AM)30.05 "Hg (Jul 20, 3:53 AM)
Low65 °F (Jul 23, 5:53 AM)20% (Jul 25, 3:53 PM)29.76 "Hg (Jul 28, 4:53 PM)
Average77 °F61%29.90 "Hg
* Reported Jul 19 4:53 AM — Aug 3 4:53 AM, Rancho Cucamonga, Weather by CustomWeather, © 2015

Note: Actual official high and low records may vary slightly from our data, if they occured in-between our weather recording intervals... More about our weather records

Advertising

Rancho Cucamonga weather history for previous 24 hours

 ConditionsComfort  
Time TempWeatherWind HumidityBarometerVisibility
4:53 AM
Mon, Aug 3
67 °FPassing clouds.3 mph85%29.83 "Hg7 mi
3:53 AM68 °FPassing clouds.No wind76%29.83 "Hg10 mi
2:53 AM67 °FPassing clouds.5 mph81%29.83 "Hg10 mi
1:53 AM69 °FPassing clouds.5 mph79%29.83 "Hg10 mi
12:53 AM70 °FClear.6 mph76%29.83 "Hg10 mi
11:53 PM
Sun, Aug 2
71 °FClear.8 mph73%29.83 "Hg10 mi
10:53 PM72 °FPassing clouds.12 mph71%29.83 "Hg10 mi
9:53 PM74 °FPassing clouds.9 mph69%29.82 "Hg10 mi
8:53 PM76 °FPassing clouds.9 mph64%29.81 "Hg10 mi
7:53 PM80 °FPassing clouds.9 mph56%29.79 "Hg10 mi
6:53 PM84 °FPassing clouds.10 mph48%29.78 "Hg10 mi
5:53 PM88 °FPassing clouds.13 mph42%29.78 "Hg10 mi
4:53 PM92 °FPassing clouds.13 mph36%29.77 "Hg10 mi
3:53 PM93 °FPassing clouds.16 mph34%29.78 "Hg10 mi
2:53 PM91 °FPassing clouds.15 mph36%29.81 "Hg10 mi
1:53 PM91 °FPassing clouds.12 mph37%29.82 "Hg10 mi
12:53 PM87 °FPassing clouds.10 mph42%29.84 "Hg10 mi
11:53 AM85 °FPassing clouds.8 mph45%29.86 "Hg10 mi
10:53 AM81 °FPassing clouds.7 mph53%29.87 "Hg10 mi
9:53 AM76 °FPassing clouds.5 mph64%29.88 "Hg8 mi
8:53 AM72 °FPassing clouds.5 mph73%29.89 "Hg7 mi
7:53 AM69 °FHaze.No wind79%29.88 "Hg6 mi
6:53 AM68 °FPassing clouds.6 mph82%29.87 "Hg9 mi
Weather by CustomWeather, © 2015

See weather overviewHow to use our weather pages